FW3135 Weather Reports


Display with metric or nautical units.
time (UTC)temp
F
wind
direction
speed
MPH
gust
MPH
rain 1hr
in
rain 24hr
in
rain mn
in
humidity
%
barometer
mb
20260904113322 70 264 1.0 8.0 0.00 0.00 0.00 85 1023.1
20260904110324 70 288 1.0 2.0 0.00 0.00 0.00 83 1023.2
20260904105840 70 291 0.0 3.0 0.00 0.00 0.00 83 1023.1
20260904102320 74 175 3.0 8.0 0.00 0.00 0.00 76 1023.0
20260904101813 75 156 5.0 8.0 0.00 0.00 0.00 73 1022.7
20260904101337 77 167 2.0 6.0 0.00 0.00 0.00 70 1022.2
20260904100832 77 222 0.0 0.0 0.00 0.00 0.00 71 1021.9
20260904100325 77 222 0.0 1.0 0.00 0.00 0.00 72 1021.4
20260904095826 76 275 0.0 6.0 0.00 0.00 0.00 73 1021.2
20260904095322 76 325 2.0 6.0 0.00 0.00 0.00 73 1020.7
20260904094824 76 42 3.0 10.0 0.00 0.00 0.00 75 1020.7
20260904094326 75 360 4.0 10.0 0.00 0.00 0.00 76 1021.0
20260904093819 74 93 3.0 11.0 0.00 0.00 0.00 78 1021.2
20260904093323 73 360 6.0 12.0 0.00 0.00 0.00 81 1021.1
20260904092819 72 82 6.0 10.0 0.00 0.00 0.00 84 1021.4
20260904092321 71 73 3.0 9.0 0.00 0.00 0.00 87 1021.6
20260904091817 70 71 4.0 9.0 0.00 0.00 0.00 87 1021.9
20260904091314 69 360 3.0 12.0 0.00 0.00 0.00 87 1022.5
20260904090818 69 78 1.0 12.0 0.00 0.00 0.00 86 1022.6
20260904090321 70 360 5.0 17.0 0.00 0.00 0.00 86 1022.9
20260904085816 70 131 9.0 17.0 0.00 0.00 0.00 85 1023.1
20260904085339 70 35 3.0 6.0 0.00 0.00 0.00 89 1022.0
20260904084818 69 61 2.0 8.0 0.00 0.00 0.00 90 1022.2
20260904084344 69 74 1.0 10.0 0.00 0.00 0.00 90 1022.3
20260904083816 68 78 3.0 10.0 0.00 0.00 0.00 90 1022.2
20260904083329 68 335 6.0 10.0 0.00 0.00 0.00 90 1022.4
20260904082838 67 318 2.0 8.0 0.00 0.00 0.00 89 1022.8
20260904082333 67 360 4.0 8.0 0.00 0.00 0.00 89 1023.1
20260904081815 68 360 5.0 6.0 0.00 0.00 0.00 88 1022.9
20260904080835 68 360 6.0 10.0 0.00 0.00 0.00 87 1023.2
20260904080324 69 360 4.0 12.0 0.00 0.00 0.00 87 1022.8
20260904075826 69 193 5.0 12.0 0.00 0.00 0.00 86 1023.2
20260904075350 70 360 2.0 5.0 0.00 0.00 0.00 86 1022.7
20260904074822 70 360 2.0 4.0 0.00 0.00 0.00 85 1022.6
20260904074407 70 200 0.0 4.0 0.00 0.00 0.00 85 1022.3
20260904074331 70 200 0.0 4.0 0.00 0.00 0.00 85 1022.3
20260904073839 70 96 0.0 6.0 0.00 0.00 0.00 86 1022.3
20260904073348 70 95 1.0 6.0 0.00 0.00 0.00 86 1022.3
20260904072823 70 115 2.0 8.0 0.00 0.00 0.00 86 1022.2
20260904072313 70 134 5.0 8.0 0.00 0.00 0.00 86 1022.2
20260904071819 70 360 2.0 10.0 0.00 0.00 0.00 86 1021.9
20260904071343 70 140 5.0 10.0 0.00 0.00 0.00 85 1022.2
20260904070846 70 360 6.0 12.0 0.00 0.00 0.00 85 1022.2
20260904070322 70 134 7.0 12.0 0.00 0.00 0.00 85 1022.3
20260904065818 70 126 3.0 11.0 0.00 0.00 0.00 84 1022.1
20260904065332 70 360 5.0 16.0 0.00 0.00 0.00 83 1021.9
20260904064816 72 360 12.0 16.0 0.00 0.00 0.00 79 1022.3
20260904064335 72 132 5.0 8.0 0.00 0.00 0.00 81 1021.9
20260904063831 72 86 3.0 9.0 0.00 0.00 0.00 82 1021.4
20260904063337 71 42 4.0 9.0 0.00 0.00 0.00 83 1021.3
20260904062834 71 77 2.0 7.0 0.00 0.00 0.00 85 1021.6
20260904050323 72 360 4.0 9.0 0.00 0.00 0.00 79 1020.7
20260904045918 72 34 1.0 4.0 0.00 0.00 0.00 79 1019.9
20260904045844 72 34 1.0 4.0 0.00 0.00 0.00 79 1019.9
20260904045333 72 269 2.0 4.0 0.00 0.00 0.00 79 1020.0
20260904022333 71 323 3.0 14.0 0.00 0.00 0.00 76 1021.5
20260904021819 72 224 3.0 14.0 0.00 0.00 0.00 76 1021.6
20260904021352 72 360 7.0 14.0 0.00 0.00 0.00 75 1021.6
20260904020838 74 360 5.0 11.0 0.00 0.00 0.00 71 1022.1
20260904020323 75 360 5.0 11.0 0.00 0.00 0.00 68 1022.0
20260904015821 77 227 5.0 9.0 0.00 0.00 0.00 64 1022.1
20260904015421 77 257 3.0 7.0 0.00 0.00 0.00 62 1021.8
20260904015345 77 257 3.0 7.0 0.00 0.00 0.00 62 1021.8
20260904014835 77 241 3.0 10.0 0.00 0.00 0.00 62 1021.8
20260904014330 76 360 7.0 12.0 0.00 0.00 0.00 62 1022.2
20260904013823 74 360 5.0 12.0 0.00 0.00 0.00 68 1021.8
20260904013356 73 360 5.0 9.0 0.00 0.00 0.00 72 1022.5
20260904012846 73 32 2.0 16.0 0.00 0.00 0.00 73 1022.0
20260904012332 72 360 4.0 23.0 0.00 0.00 0.00 74 1022.0
20260904011841 73 360 13.0 25.0 0.00 0.00 0.00 73 1022.7
20260904011339 75 360 8.0 25.0 0.00 0.00 0.00 68 1021.6
20260904010857 81 360 8.0 14.0 0.00 0.00 0.00 58 1021.0
20260904010326 82 117 3.0 9.0 0.00 0.00 0.00 46 1020.2
20260904005847 83 146 5.0 9.0 0.00 0.00 0.00 44 1020.2
20260904005347 84 117 0.0 9.0 0.00 0.00 0.00 43 1020.1
20260904004819 84 87 3.0 10.0 0.00 0.00 0.00 42 1019.8
20260904004336 84 74 6.0 10.0 0.00 0.00 0.00 41 1019.8
20260904003815 85 85 3.0 10.0 0.00 0.00 0.00 40 1020.0
20260904003328 85 360 6.0 10.0 0.00 0.00 0.00 39 1020.0
20260904002826 85 83 7.0 10.0 0.00 0.00 0.00 38 1019.9
20260904002320 86 69 6.0 9.0 0.00 0.00 0.00 37 1019.9
20260904001831 85 78 5.0 10.0 0.00 0.00 0.00 37 1020.0
20260904001412 85 80 5.0 10.0 0.00 0.00 0.00 37 1020.1
20260904001331 85 80 5.0 10.0 0.00 0.00 0.00 37 1020.1
20260904000842 83 62 5.0 10.0 0.00 0.00 0.00 38 1020.2
20260904000337 80 84 5.0 10.0 0.00 0.00 0.00 42 1020.2
20260903235854 77 74 1.0 6.0 0.00 0.00 0.00 55 1020.4
20260903235324 79 200 2.0 6.0 0.00 0.00 0.00 60 1020.5
20260903234825 79 360 2.0 6.0 0.00 0.00 0.00 55 1020.4
20260903234320 77 34 2.0 6.0 0.00 0.00 0.00 55 1020.4
20260903233828 78 194 1.0 6.0 0.00 0.00 0.00 65 1020.5
20260903233321 79 178 2.0 4.0 0.00 0.00 0.00 61 1020.6
20260903232821 80 169 1.0 2.0 0.00 0.00 0.00 60 1020.6
20260903232329 80 355 0.0 4.0 0.00 0.00 0.00 56 1020.6
20260903231831 80 355 1.0 6.0 0.00 0.00 0.00 55 1020.6
20260903231327 81 335 3.0 6.0 0.00 0.00 0.00 54 1020.8
20260903230819 83 300 3.0 7.0 0.00 0.00 0.00 48 1020.8
20260903230341 84 75 1.0 10.0 0.00 0.00 0.00 44 1020.8
20260903225819 85 269 2.0 11.0 0.00 0.00 0.00 40 1020.8
20260903223826 83 348 4.0 11.0 0.00 0.00 0.00 48 1020.3
20260903213321 73 360 2.0 6.0 0.00 0.00 0.00 77 1022.0
20260903212319 74 360 1.0 5.0 0.00 0.00 0.00 75 1022.0
20260903211341 75 109 1.0 4.0 0.00 0.00 0.00 74 1021.6
20260903210823 75 138 2.0 4.0 0.00 0.00 0.00 74 1021.5
20260903210315 75 116 3.0 6.0 0.00 0.00 0.00 73 1021.5
20260903205851 76 360 3.0 6.0 0.00 0.00 0.00 72 1021.4
20260903205348 76 143 3.0 5.0 0.00 0.00 0.00 71 1021.4
20260903203321 77 360 4.0 8.0 0.00 0.00 0.00 68 1020.8
20260903202825 78 360 3.0 6.0 0.00 0.00 0.00 66 1020.7
20260903202321 79 122 2.0 6.0 0.00 0.00 0.00 65 1020.6
20260903201816 79 122 3.0 6.0 0.00 0.00 0.00 65 1020.5
20260903201340 80 360 4.0 6.0 0.00 0.00 0.00 62 1020.5
20260903200815 82 117 1.0 3.0 0.00 0.00 0.00 60 1020.3
20260903200318 82 111 2.0 3.0 0.00 0.00 0.00 58 1020.1
20260903195837 83 142 0.0 6.0 0.00 0.00 0.00 59 1020.0
20260903195314 84 131 0.0 6.0 0.00 0.00 0.00 55 1019.8
20260903194830 85 140 1.0 3.0 0.00 0.00 0.00 55 1019.7
20260903194332 85 46 0.0 1.0 0.00 0.00 0.00 54 1019.6
20260903193828 85 46 0.0 2.0 0.00 0.00 0.00 51 1019.6
20260903193328 84 45 0.0 2.0 0.00 0.00 0.00 52 1019.5
20260903192819 83 45 1.0 3.0 0.00 0.00 0.00 56 1019.4
20260903192315 82 360 0.0 2.0 0.00 0.00 0.00 59 1019.5
20260903191819 82 176 0.0 2.0 0.00 0.00 0.00 59 1019.4
20260903191315 82 176 0.0 4.0 0.00 0.00 0.00 58 1019.4
20260903190835 83 176 2.0 5.0 0.00 0.00 0.00 56 1019.5
20260903190331 86 360 3.0 5.0 0.00 0.00 0.00 53 1019.3
20260903185833 90 165 3.0 5.0 0.00 0.00 0.00 49 1019.2
20260903185330 92 150 2.0 4.0 0.00 0.00 0.00 45 1019.1
20260903184854 92 109 1.0 4.0 0.00 0.00 0.00 42 1019.0
20260903184328 92 205 0.0 3.0 0.00 0.00 0.00 44 1019.0
20260903183852 93 279 0.0 1.0 0.00 0.00 0.00 39 1018.9
20260903183328 94 279 0.0 2.0 0.00 0.00 0.00 40 1018.9
20260903182830 94 278 1.0 2.0 0.00 0.00 0.00 38 1019.0
20260903182343 96 277 1.0 4.0 0.00 0.00 0.00 39 1019.0
20260903181825 96 308 2.0 6.0 0.00 0.00 0.00 33 1018.9
20260903181319 96 360 3.0 8.0 0.00 0.00 0.00 33 1019.0
20260903180842 96 360 2.0 4.0 0.00 0.00 0.00 34 1019.0
20260903180316 96 300 3.0 4.0 0.00 0.00 0.00 35 1019.1
20260903175817 96 299 1.0 5.0 0.00 0.00 0.00 37 1019.1
20260903175400 96 292 2.0 5.0 0.00 0.00 0.00 34 1019.2
20260903174814 96 310 2.0 5.0 0.00 0.00 0.00 34 1019.2
20260903174330 96 333 2.0 5.0 0.00 0.00 0.00 34 1019.3
20260903173834 96 360 2.0 6.0 0.00 0.00 0.00 33 1019.4
20260903173329 96 360 4.0 8.0 0.00 0.00 0.00 33 1019.3
20260903172825 96 360 4.0 9.0 0.00 0.00 0.00 34 1019.4
20260903172327 96 321 4.0 9.0 0.00 0.00 0.00 34 1019.4
20260903171852 95 360 4.0 9.0 0.00 0.00 0.00 34 1019.5
20260903171333 94 360 4.0 10.0 0.00 0.00 0.00 36 1019.5
20260903170847 91 360 5.0 11.0 0.00 0.00 0.00 38 1019.6
20260903170330 89 325 5.0 12.0 0.00 0.00 0.00 44 1019.7
20260903165819 88 360 6.0 12.0 0.00 0.00 0.00 47 1019.6
20260903165321 90 360 5.0 9.0 0.00 0.00 0.00 46 1019.6
20260903164814 94 360 4.0 6.0 0.00 0.00 0.00 37 1019.3
20260903164336 97 253 3.0 4.0 0.00 0.00 0.00 32 1019.2
20260903163831 97 248 2.0 4.0 0.00 0.00 0.00 30 1019.2
20260903163323 97 267 1.0 4.0 0.00 0.00 0.00 31 1019.3
20260903162823 97 254 3.0 4.0 0.00 0.00 0.00 30 1019.2
20260903162341 96 360 2.0 4.0 0.00 0.00 0.00 32 1019.2
20260903161815 96 360 3.0 4.0 0.00 0.00 0.00 31 1019.3
20260903161328 96 360 3.0 4.0 0.00 0.00 0.00 31 1019.3
20260903160829 97 262 3.0 4.0 0.00 0.00 0.00 31 1019.4
20260903160320 97 257 2.0 4.0 0.00 0.00 0.00 32 1019.4
20260903155819 96 360 3.0 4.0 0.00 0.00 0.00 32 1019.5
20260903155338 96 360 2.0 4.0 0.00 0.00 0.00 33 1019.6
20260903154815 96 360 2.0 4.0 0.00 0.00 0.00 33 1019.6
20260903154326 96 254 1.0 6.0 0.00 0.00 0.00 33 1019.6
20260903153818 95 360 3.0 6.0 0.00 0.00 0.00 33 1019.7
20260903153319 95 266 1.0 3.0 0.00 0.00 0.00 35 1019.7
20260903152833 93 360 1.0 4.0 0.00 0.00 0.00 36 1019.7
20260903152332 93 311 2.0 5.0 0.00 0.00 0.00 36 1019.8
20260903151856 92 360 3.0 5.0 0.00 0.00 0.00 37 1019.8
20260903151330 91 251 4.0 5.0 0.00 0.00 0.00 38 1019.9
20260903150824 91 360 4.0 5.0 0.00 0.00 0.00 38 1019.8
20260903150323 91 256 3.0 5.0 0.00 0.00 0.00 39 1019.9
20260903145833 92 250 4.0 5.0 0.00 0.00 0.00 36 1019.9
20260903145328 93 360 2.0 4.0 0.00 0.00 0.00 39 1020.0
20260903144821 92 237 2.0 4.0 0.00 0.00 0.00 38 1020.0
20260903144315 91 243 2.0 3.0 0.00 0.00 0.00 40 1020.1
20260903143816 90 242 2.0 4.0 0.00 0.00 0.00 42 1020.2
20260903143331 90 256 2.0 4.0 0.00 0.00 0.00 40 1020.2
20260903142835 90 254 2.0 3.0 0.00 0.00 0.00 46 1020.3
20260903142332 90 240 2.0 3.0 0.00 0.00 0.00 53 1020.4
20260903141831 91 249 2.0 3.0 0.00 0.00 0.00 50 1020.5
20260903141353 91 238 2.0 3.0 0.00 0.00 0.00 48 1020.4
20260903140829 91 243 1.0 3.0 0.00 0.00 0.00 47 1020.6
20260903140346 89 243 0.0 3.0 0.00 0.00 0.00 42 1020.6
20260903135822 89 243 2.0 3.0 0.00 0.00 0.00 45 1020.8
20260903135314 89 360 1.0 3.0 0.00 0.00 0.00 52 1020.7
20260903134838 89 242 1.0 3.0 0.00 0.00 0.00 52 1020.7
20260903134341 89 243 1.0 2.0 0.00 0.00 0.00 47 1020.6
20260903133816 89 242 0.0 3.0 0.00 0.00 0.00 48 1020.8
20260903133331 89 245 1.0 3.0 0.00 0.00 0.00 49 1020.8
20260903132832 88 245 2.0 3.0 0.00 0.00 0.00 45 1020.9
20260903132321 88 239 2.0 3.0 0.00 0.00 0.00 47 1020.9
20260903131815 87 239 2.0 3.0 0.00 0.00 0.00 52 1021.0
20260903131327 87 240 2.0 4.0 0.00 0.00 0.00 50 1021.1
20260903130822 86 238 2.0 5.0 0.00 0.00 0.00 48 1021.1
20260903130346 85 240 2.0 5.0 0.00 0.00 0.00 50 1021.1
20260903125817 84 254 3.0 4.0 0.00 0.00 0.00 52 1021.1
20260903125351 83 250 3.0 6.0 0.00 0.00 0.00 53 1021.1
20260903124817 82 360 4.0 6.0 0.00 0.00 0.00 55 1021.4
20260903124341 82 360 3.0 7.0 0.00 0.00 0.00 57 1021.4